Starlink 34232

operational
NORAD ID: 65019 Int'l Des: 2025-161 Owner: SPXS Country: US Constellation: starlink
LEOCIRCULAR

Starlink 34232について

説明を読み込み中...

リアルタイム位置

3D地球を読み込み中...

次回通過

高度履歴

Altitude vs Time

uPlot chart will show altitude changes over time

軌道要素

1 65019U 25161E 25340.78691361 .00068664 00000-0 23040-2 0 9992
2 65019 53.1597 5.9016 0002021 74.4011 285.7213 15.30271871 21215
Epoch: Dec 6, 2025 • Age: 23 hours

現在のステータス

高度 475.3 km
速度 7.63 km/s
衛星直下点 3.34°N, 161.64°W
打ち上げ日 Jul 30, 2025
運用期間 0.3 years
タイプ internet

技術仕様

分類 Payload
質量 575.00 kg
乾燥質量 530.00 kg
総質量 575.00 kg
長さ 0.30 m
直径 4.10 m
スパン 29.00 m
形状 Box + pan
製造者 SPXS
バスタイプ Starlink V2MO
フェーズステータス In Orbit
所有者/国 SPXS/US

大規模コンステレーション

Loading constellations...